Effective Sunday, March 17, 2024, the National Weather Service National Data Buoy Center will discontinue its Dial-A-Buoy Interactive Voice Response system. For more information, see Service Change Notice 24-06 (PDF).

Station HRBM4 - 9075014 - Harbor Beach, MI Image indicating link to RSS feed of recent meteorological observations for station HRBM4


Conditions at HRBM4 as of
(5:30 am EST)
1030 GMT on 02/25/2024:
     

Click on the graph icon in the table below to see a time series plot of the last five days of that observation.

5-day plot - Wind Direction Wind Direction (WDIR): S ( 190 deg true )
5-day plot - Wind Speed Wind Speed (WSPD): 11.1 kts
5-day plot - Wind Gust Wind Gust (GST): 14.0 kts
5-day plot - Atmospheric Pressure Atmospheric Pressure (PRES):29.85 in
5-day plot - Air Temperature Air Temperature (ATMP): 26.4 °F
5-day plot - Water Temperature Water Temperature (WTMP): 39.6 °F
5-day plot - Dew Point Dew Point (DEWP): 18.1 °F
5-day plot - Ice Accretion Ice Accretion (ICE): 0.04 in per hour
5-day plot - Wind Chill Wind Chill (CHILL): 15.4 °F
5-day plot - Wind Speed at 10 Meters Wind Speed at 10 meters (WSPD10M): 11.7 kts
5-day plot - Wind Speed at 20 Meters Wind Speed at 20 meters (WSPD20M): 11.7 kts
5-day plot -  Wind Speed, Wind Gust and Atmospheric Pressure Combined plot of Wind Speed, Gust, and Air Pressure
NOS Water Level Observation Network Water Level
Previous observations
TIME
(EST)
5-day plot - Wind Direction
WDIR
 
5-day plot - Wind Speed
WSPD
kts
5-day plot - Wind Gust
GST
kts
5-day plot - Wave Height
WVHT
ft
5-day plot - Dominant Wave Period
DPD
sec
5-day plot - Average Wave Period
APD
sec
5-day plot - Mean Wave Direction
MWD
 
5-day plot - Atmospheric Pressure
PRES
in
5-day plot - Pressure Tendency
PTDY
in
5-day plot - Air Temperature
ATMP
°F
5-day plot - Water Temperature
WTMP
°F
5-day plot - Dew Point
DEWP
°F
5-day plot - Salinity
SAL
psu
5-day plot - Visibility
VIS
nmi
5-day plot - Tide (above MLLW)
TIDE
ft
2024-02-25 05:24 amSSW 11.1 14.0----29.85- 26.4 39.6 18.1---
2024-02-25 05:18 amSSW 9.9 12.0----29.85- 26.6 39.6 18.3---
2024-02-25 05:12 amSSW 8.9 12.0----29.85- 26.6 39.6 18.1---
2024-02-25 05:06 amSSW 9.9 15.0----29.85- 26.8 39.6 18.3---
2024-02-25 05:00 amSSW 9.9 13.0----29.85-0.05 26.8 39.6 18.1---
2024-02-25 04:54 amSSW 8.0 12.0----29.85- 27.0 39.6 18.5---
2024-02-25 04:48 amSSW 9.9 12.0----29.86- 27.0- 18.1---
2024-02-25 04:42 amSSW 8.9 12.0----29.86- 27.1- 18.3---
2024-02-25 04:36 amSSW 8.0 12.0----29.86- 27.1- 18.0---
2024-02-25 04:30 amSSW 8.9 11.1----29.86- 27.3 39.6 18.1---
2024-02-25 04:24 amSSW 8.0 11.1----29.86- 27.5 39.4 18.1---
2024-02-25 04:18 amSSW 9.9 13.0----29.87- 27.5 39.4 18.1---
2024-02-25 04:12 am SW 8.0 11.1----29.87- 27.7 39.4 18.5---
2024-02-25 04:06 amSSW 8.9 11.1----29.87- 27.7 39.4 18.3---
2024-02-25 04:00 amSSW 9.9 12.0----29.87-0.04- 39.6----
2024-02-25 03:54 am SW 9.9 14.0----29.87-- 39.4----
2024-02-25 03:48 amSSW 12.0 15.9----29.87- 27.7 39.4 18.1---
2024-02-25 03:42 amSSW 9.9 13.0----29.87- 27.7 39.4 18.3---
2024-02-25 03:36 amSSW 12.0 15.0----29.88- 27.7 39.4 18.0---
2024-02-25 03:30 am SW 12.0 15.0----29.88- 27.7 39.4 18.0---
2024-02-25 03:24 am SW 11.1 15.9----29.88- 27.7 39.4 18.0---
2024-02-25 03:18 amSSW 12.0 15.0----29.88- 27.7 39.6 17.8---
2024-02-25 03:12 amSSW 12.0 17.1----29.88- 27.7 39.6 17.8---
2024-02-25 03:06 amSSW 13.0 15.0----29.88- 27.7 39.6 17.6---
2024-02-25 03:00 amSSW 13.0 18.1----29.88-0.04 27.7 39.4 17.2---
2024-02-25 02:54 amSSW 9.9 15.9----29.89- 27.7 39.4 17.2---
2024-02-25 02:48 amSSW 11.1 15.9----29.89- 27.7 39.4 17.1---
2024-02-25 02:42 amSSW 12.0 17.1----29.89- 27.7 39.4 16.7---
2024-02-25 02:36 am SW 13.0 18.1----29.90- 27.7 39.4 16.5---
2024-02-25 02:30 am SW 15.0 20.0----29.90- 27.7 39.4 16.3---
2024-02-25 02:24 am SW 12.0 15.9----29.90- 27.9 39.4 16.7---
2024-02-25 02:18 am SW 11.1 14.0----29.91- 27.7 39.4 16.5---
2024-02-25 02:12 am SW 12.0 15.0----29.91- 27.7 39.4 16.5---
2024-02-25 02:06 am SW 12.0 15.9----29.91- 27.5 39.4 16.2---
2024-02-25 02:00 am SW 11.1 15.0----29.91-0.04 27.5 39.4 16.5---
2024-02-25 01:54 am SW 12.0 15.9----29.91- 27.3 39.4 16.3---
2024-02-25 01:48 am SW 12.0 15.0----29.91- 27.3 39.4 16.5---
2024-02-25 01:42 am SW 9.9 14.0----29.91- 27.1 39.4 16.3---
2024-02-25 01:36 am SW 9.9 14.0----29.91- 27.1 39.4 16.3---
2024-02-25 01:30 am SW 11.1 13.0----29.91- 27.3 39.4 16.7---
2024-02-25 01:24 amSSW 12.0 15.9----29.91- 27.1 39.4 16.3---
2024-02-25 01:18 amSSW 9.9 13.0----29.91- 27.1 39.4 16.7---
2024-02-25 01:12 amSSW 12.0 14.0----29.91- 27.1 39.4 16.5---
2024-02-25 01:06 amSSW 11.1 14.0----29.91- 27.1 39.4 16.9---
2024-02-25 01:00 amSSW 12.0 15.9----29.91-0.04 27.1- 16.9---
2024-02-25 12:54 amSSW 11.1 14.0----29.91- 27.0- 17.2---
2024-02-25 12:48 amSSW 9.9 13.0----29.91- 26.8 39.4 17.6---
2024-02-25 12:42 amSSW 9.9 11.1----29.92- 26.6 39.4 18.0---
2024-02-25 12:36 amSSW 8.9 12.0----29.92- 26.4 39.4 18.0---
2024-02-25 12:30 amSSW 8.9 11.1----29.92- 26.2 39.4 18.3---
2024-02-25 12:24 amSSW 8.0 12.0----29.92- 26.2 39.4 18.5---
2024-02-25 12:18 amSSW 8.0 11.1----29.92- 25.9 39.4 18.5---
2024-02-25 12:12 amSSW 8.9 11.1----29.92- 25.7 39.4 18.5---
2024-02-25 12:06 am S 7.0 9.9----29.92- 25.3 39.4 18.3---
2024-02-25 12:00 am S 7.0 11.1----29.92-0.03 25.3 39.4 18.7---
2024-02-24 11:54 pm S 8.0 9.9----29.93- 25.3 39.4 18.7---
2024-02-24 11:48 pm S 7.0 9.9----29.93-- 39.4----
2024-02-24 11:42 pm S 8.0 11.1----29.93-- 39.4----
2024-02-24 11:36 pm S 7.0 8.9----29.93-- 39.4----
2024-02-24 11:30 pm S 6.0 7.0----29.93- 24.8 39.4 18.9---
2024-02-24 11:24 pm S 6.0 8.0----29.94- 24.8 39.4 18.9---
2024-02-24 11:18 pm S 7.0 8.0----29.94- 24.6 39.4 18.7---
2024-02-24 11:12 pm S 6.0 8.0----29.94- 24.6 39.4 18.9---
2024-02-24 11:06 pmSSW 7.0 8.9----29.94- 24.4 39.2 18.7---
2024-02-24 11:00 pmSSW 6.0 7.0----29.94-0.03 24.3 39.4 18.7---
2024-02-24 10:54 pmSSW 6.0 8.0----29.94- 24.3 39.4 18.7---
2024-02-24 10:48 pmSSW 7.0 8.9----29.95- 24.3 39.4 18.7---
2024-02-24 10:42 pmSSW 7.0 11.1----29.95- 24.1 39.4 18.5---
2024-02-24 10:36 pm S 8.9 11.1----29.95- 24.1 39.4 18.5---
2024-02-24 10:30 pm S 8.0 11.1----29.95- 23.9 39.4 18.3---
2024-02-24 10:24 pm S 8.9 11.1----29.95- 23.7 39.4 18.3---
2024-02-24 10:18 pm S 8.9 12.0------ 23.7- 18.3---
2024-02-24 10:12 pm S 8.9 11.1------ 23.5- 18.3---
2024-02-24 10:06 pm S 8.0 12.0------ 23.4- 18.1---
2024-02-24 10:00 pm S 8.9 11.1----29.95-0.03 23.4 39.4----
2024-02-24 09:54 pm S 8.0 9.9----29.95- 23.4 39.4----
2024-02-24 09:48 pm S 9.9 12.0----29.95- 23.4 39.4 18.3---
2024-02-24 09:42 pm S 8.9 12.0----29.95- 23.2 39.4 18.1---
2024-02-24 09:36 pm S 9.9 12.0----29.96- 23.4 39.2 18.3---
2024-02-24 09:30 pmSSW 8.0 11.1----29.96- 23.2 39.2 18.1---
2024-02-24 09:24 pm S 8.9 12.0----29.96- 23.2 39.2 18.3---
2024-02-24 09:18 pm S 9.9 12.0----29.96-- 39.2----
2024-02-24 09:12 pm S 9.9 12.0----29.95-- 39.2----
2024-02-24 09:06 pm S 9.9 14.0----29.95-- 39.2----
2024-02-24 09:00 pm-------29.96-0.03- 39.2----
2024-02-24 08:54 pm-------29.96-- 39.2----
2024-02-24 08:48 pm S 8.0 11.1----29.96-- 39.2----
2024-02-24 08:42 pm S 8.9 11.1----29.96-- 39.2----
2024-02-24 08:36 pm S 8.0 9.9----29.96-- 39.2----
2024-02-24 08:30 pm S 8.0 11.1----29.97- 23.2 39.2 18.0---
2024-02-24 08:24 pm S 8.0 11.1----29.97- 22.8 39.2 17.6---
2024-02-24 08:18 pm S 8.9 9.9----29.97- 23.0 39.2 17.6---
2024-02-24 08:12 pm S 8.9 11.1----29.97- 23.0 39.2 17.6---
2024-02-24 08:06 pm S 8.0 9.9----29.97- 22.8 39.2 17.2---
2024-02-24 08:00 pm S 8.9 11.1----29.97-0.01- 39.2----
2024-02-24 07:54 pm S 8.0 9.9----29.97-- 39.2----
2024-02-24 07:48 pm S 8.0 11.1----29.97-- 39.2----
2024-02-24 07:42 pm S 6.0 8.0----29.98-- 39.2----
2024-02-24 07:36 pm S 7.0 8.0----29.98-- 39.2----
2024-02-24 07:30 pm S 7.0 9.9----29.98-- 39.2----
2024-02-24 07:24 pm S 8.9 9.9----29.98-- 39.2----
2024-02-24 07:18 pm S 8.9 9.9----29.98- 23.0- 16.5---
2024-02-24 07:12 pm S 7.0 8.9----29.98- 23.2- 16.7---
2024-02-24 07:06 pm S 7.0 8.9----29.98- 23.0- 16.3---
2024-02-24 07:00 pm S 6.0 8.0----29.98-0.02 23.0- 16.0---
2024-02-24 06:54 pm S 6.0 8.0----29.99- 23.0- 15.8---
2024-02-24 06:48 pm S 7.0 8.0----29.99- 23.0 39.2 15.8---
2024-02-24 06:42 pm S 7.0 8.9----29.98- 23.2 39.2 16.0---
2024-02-24 06:36 pm S 8.0 8.9----29.99- 23.0 39.2 15.6---
2024-02-24 06:30 pm S 8.0 8.9----29.99-- 39.2----
2024-02-24 06:24 pm S 7.0 8.9----29.99-- 39.2----
2024-02-24 06:18 pmSSE 8.0 9.9----29.99- 23.0 39.4 15.6---
2024-02-24 06:12 pmSSE 8.0 9.9----29.99- 23.2 39.2 15.8---
2024-02-24 06:06 pmSSE 7.0 9.9----29.99- 23.0 39.2 15.4---
2024-02-24 06:00 pmSSE 8.0 9.9----29.98-0.01 22.8 39.2 15.1---
2024-02-24 05:54 pmSSE 8.9 9.9----29.98- 22.6 39.2 14.9---
2024-02-24 05:48 pm SE 7.0 8.9----29.98- 22.6 39.2 14.7---
2024-02-24 05:42 pm SE 7.0 8.0----29.99- 22.6 39.2 14.7---
2024-02-24 05:36 pm SE 6.0 8.0----29.99- 22.6 39.2 14.5---
2024-02-24 05:30 pm SE 7.0 8.0----29.99- 22.5 39.2 14.2---
2024-02-24 05:24 pm SE 5.1 7.0----29.99- 22.5 39.2 14.2---
2024-02-24 05:18 pmESE 6.0 7.0----29.99-- 39.4----
2024-02-24 05:12 pmESE 5.1 6.0----29.99-- 39.4----
2024-02-24 05:06 pmESE 5.1 8.9----29.99-- 39.4----
2024-02-24 05:00 pm E 5.1 7.0----29.99-0.02------
2024-02-24 04:54 pm E 5.1 6.0----29.99-------
2024-02-24 04:48 pm E 5.1 7.0----29.99- 21.9- 12.9---
2024-02-24 04:42 pmENE 5.1 6.0----29.99- 21.7- 12.7---
2024-02-24 04:36 pm E 5.1 6.0----30.00- 21.7- 12.6---
2024-02-24 04:30 pm E 4.1 5.1----30.00- 21.7 39.4 12.7---
2024-02-24 04:24 pm E 4.1 6.0----30.00- 21.7 39.4 12.6---
2024-02-24 04:18 pm E 2.9 5.1----30.00- 21.7 39.4 12.6---
2024-02-24 04:12 pmENE 2.9 4.1----30.00- 21.6 39.4 12.2---
2024-02-24 04:06 pmENE 2.9 4.1----30.00- 21.6 39.4 12.2---
2024-02-24 04:00 pm-------30.00+0.00 21.7 39.4 12.0---
2024-02-24 03:54 pm-------30.00- 21.9 39.4 12.4---
2024-02-24 03:48 pm NE 5.1 5.1----30.00-- 39.6----
2024-02-24 03:42 pmENE 5.1 6.0----30.00-- 39.7----
2024-02-24 03:36 pm NE 4.1 6.0----30.00-- 39.6----
2024-02-24 03:30 pm NE 4.1 6.0------ 21.4 39.6 11.8---
2024-02-24 03:24 pm NE 4.1 6.0------ 21.6 39.6 12.4---
2024-02-24 03:18 pm-------30.00- 21.7 39.6 12.6---
2024-02-24 03:12 pm-------30.00- 21.6 39.7 12.0---
2024-02-24 03:06 pm-------30.00- 21.4 39.7 11.8---
2024-02-24 03:00 pm NE 4.1 6.0----30.00-0.01 21.4 39.7 12.2---
2024-02-24 02:54 pmNNE 5.1 7.0----30.00- 21.2 39.7 11.8---
2024-02-24 02:48 pmNNE 2.9 7.0----30.00- 21.4 39.7 12.6---
2024-02-24 02:42 pm NE 6.0 8.0----30.00- 21.0 39.7 12.0---
2024-02-24 02:36 pmNNE 7.0 8.9----30.00- 21.0 39.7 12.0---
2024-02-24 02:30 pmNNE 6.0 8.9----30.00- 21.0- 12.2---
2024-02-24 02:24 pmNNE 7.0 8.9----30.00- 20.8- 12.2---
2024-02-24 02:18 pmNNE 8.9 9.9----30.01- 20.7 39.7 11.8---
2024-02-24 02:12 pm N 5.1 7.0----30.01- 21.4 39.9 12.4---
2024-02-24 02:06 pm N 8.0 9.9----30.01- 20.8 39.9 12.2---
2024-02-24 02:00 pmNNE 6.0 8.0----30.01+0.00- 39.9----
2024-02-24 01:54 pmNNE 7.0 9.9----30.01-- 39.7----
2024-02-24 01:48 pmNNE 8.0 8.9----30.00- 20.7 39.7 11.7---
2024-02-24 01:42 pmNNE 7.0 8.9----30.00- 21.0 39.7 12.0---
2024-02-24 01:36 pm N 5.1 8.0----30.00- 21.2 39.7 12.4---
2024-02-24 01:30 pm N 7.0 8.9----30.01- 20.5 39.7 11.7---
2024-02-24 01:24 pm N 8.0 9.9----30.01- 20.5 39.7 11.5---
2024-02-24 01:18 pmNNW 8.0 9.9----30.01- 20.8 39.7 12.4---
2024-02-24 01:12 pm N 8.0 9.9----30.01- 20.7 39.7 12.2---
2024-02-24 01:06 pmNNW 8.0 8.9----30.01- 20.8 39.7 11.8---
2024-02-24 01:00 pm N 7.0 9.9----30.01-- 39.7----
2024-02-24 12:54 pm N 4.1 9.9----30.01-- 39.9----
2024-02-24 12:48 pmNNW 8.9 12.0----30.01-- 39.9----
2024-02-24 12:42 pmNNW 8.9 11.1----30.01-- 39.7----
2024-02-24 12:36 pm N 6.0 11.1----30.01-- 39.7----
2024-02-24 12:30 pmNNW 8.9 11.1----30.01- 20.3 39.6 12.4---
2024-02-24 12:24 pmNNW 8.9 12.0----30.02- 20.8 39.7 13.5---
2024-02-24 12:18 pm N 8.9 11.1----30.01- 20.7 39.9 13.8---
2024-02-24 12:12 pm N 8.9 12.0----30.01- 20.3 39.7 13.8---
2024-02-24 12:06 pm N 8.0 12.0----30.01- 20.3 39.7 14.5---
2024-02-24 12:00 pm N 8.9 11.1----30.01+0.02 20.1 39.9 14.5---
2024-02-24 11:54 amNNE 9.9 12.0----30.01- 20.1 39.9 14.2---
2024-02-24 11:48 amNNE 6.0 8.9----30.01-- 39.7----
2024-02-24 11:42 am N 6.0 8.9----30.01-- 39.7----
2024-02-24 11:36 am N 8.9 13.0----30.01-- 39.7----
2024-02-24 11:30 am N 9.9 13.0----30.01-- 39.7----
2024-02-24 11:24 amNNE 8.0 9.9----30.01-- 39.9----
2024-02-24 11:18 amNNE 8.0 11.1------ 20.1 39.9 13.6---
2024-02-24 11:12 amNNE 9.9 11.1------ 19.9 39.9 13.5---
2024-02-24 11:06 amNNW 7.0 11.1------ 19.2 39.9 12.2---
2024-02-24 11:00 am N 8.9 12.0----30.00-- 40.1----
2024-02-24 10:54 am N 9.9 12.0----30.00-- 40.1----
2024-02-24 10:48 am N 7.0 12.0----30.01-- 39.9----
2024-02-24 10:42 am N 12.0 13.0----30.00-- 39.9----
2024-02-24 10:36 amNNE 9.9 13.0----30.00-- 39.9----
2024-02-24 10:30 am N 11.1 14.0----30.00- 19.8 39.9 11.8---
2024-02-24 10:24 am N 11.1 14.0----30.00- 19.6 39.9 11.7---
2024-02-24 10:18 am N 12.0 14.0----30.00- 19.9 39.9 12.2---
2024-02-24 10:12 am N 8.9 12.0----30.00- 19.6 39.9 12.6---
2024-02-24 10:06 amNNE 11.1 13.0----30.00- 19.9 39.9 12.6---
2024-02-24 10:00 am N 11.1 14.0------------
2024-02-24 09:54 am N 13.0 15.9------------
2024-02-24 09:48 amNNE 11.1 14.0----29.99-- 39.9----
2024-02-24 09:42 amNNE 11.1 13.0----29.99-- 39.9----
2024-02-24 09:36 am N 12.0 15.0----29.99-- 39.9----
2024-02-24 09:30 am N 13.0 18.1----29.99- 19.2 39.9 11.3---
2024-02-24 09:24 am N 9.9 14.0----29.99- 20.3 39.9 12.7---
2024-02-24 09:18 am N 13.0 15.9----29.99- 19.2 39.9 10.9---
2024-02-24 09:12 am N 13.0 15.0----29.99- 19.4 39.9 10.8---
2024-02-24 09:06 am N 12.0 15.9----29.98- 19.6 40.1 11.1---
2024-02-24 09:00 am N 11.1 15.0----29.99+0.07 19.6 40.1 12.0---
2024-02-24 08:54 am N 14.0 15.0----29.98- 19.2 40.1 11.3---
2024-02-24 08:48 amNNE 12.0 15.9------- 40.1----
2024-02-24 08:42 am N 12.0 15.9------- 40.1----
2024-02-24 08:36 am N 13.0 17.1------- 40.3----
2024-02-24 08:30 amNNE 13.0 17.1----29.98-------
2024-02-24 08:24 amNNE 15.9 18.1----29.98-------
2024-02-24 08:18 am N 12.0 18.1----29.98-------
2024-02-24 08:12 am N 15.0 17.1----29.97-------
2024-02-24 08:06 amNNE 15.9 19.0----29.97-------
2024-02-24 08:00 am--------- 19.0 40.3 12.2---
2024-02-24 07:54 am--------- 19.2 40.3 12.2---
2024-02-24 07:48 amNNE 15.0 17.1----29.97- 18.9 40.3 12.6---
2024-02-24 07:42 am NE 14.0 17.1----29.96- 19.0 40.3 12.6---
2024-02-24 07:36 am N 15.0 18.1----29.96- 18.9 40.3 11.7---
2024-02-24 07:30 am N 15.0 19.0----29.96-------
2024-02-24 07:24 amNNE 15.9 21.0----29.95-------
2024-02-24 07:18 amNNE 15.0 20.0----29.95-- 40.1----
2024-02-24 07:12 amNNE 14.0 19.0----29.95-- 40.1----
2024-02-24 07:06 amNNE 15.9 20.0----29.94-- 40.1----
2024-02-24 07:00 am N 17.1 20.0----29.94+0.06 19.4 40.1 11.7---
2024-02-24 06:54 amNNE 17.1 19.0----29.94- 19.2 40.1 11.5---
2024-02-24 06:48 amNNE 15.9 19.0----29.94-- 40.3----
2024-02-24 06:42 amNNE 14.0 18.1----29.94-- 40.3----
2024-02-24 06:36 amNNE 14.0 18.1----29.94-- 40.3----
2024-02-24 06:30 amNNE 15.9 19.0----29.93- 19.6 40.3 11.7---
2024-02-24 06:24 amNNE 15.0 21.0----29.93- 19.2 40.3 11.8---
2024-02-24 06:18 amNNE 13.0 15.9----29.93- 19.8 40.1 12.9---
2024-02-24 06:12 amNNE 15.0 20.0----29.92- 19.4 40.1 12.4---
2024-02-24 06:06 amNNE 15.0 19.0----29.92- 19.6 40.3 12.2---
2024-02-24 06:00 am-------29.92-- 40.1----
2024-02-24 05:54 am-------29.92-- 40.1----